Location: Degersen
(52.2871°N, 9.5716°E)
Time: 23:16:44
(UTC+00:00)

Cosmos 2227 Rocket - Pass Details

Date: 20 January 2026
Orbit: 837 x 845 km, 71.0° (Epoch: 17 February)

Event Time Altitude Azimuth Distance (km) Brightness Sun altitude
Exits shadow 06:38:05 - 330° (NNW) 3,264 4.8 -6.3°
Reaches altitude 10° 06:40:39 10° 343° (NNW) 2,472 4.2 -6.0°
Maximum altitude 06:45:06 23° 35° (NE) 1,730 4.0 -5.4°
Drops below altitude 10° 06:49:32 10° 87° (E) 2,468 5.7 -4.8°
Sets 06:52:30 0° 101° (ESE) 3,401 7.2 -4.4°
